[[{"header":{"parameterUnit":"m.s-1","parameterCategory":1,"la1":30.2991,"la2":30.254,"lo1":-89.0895,"lo2":-89.0444,"dy":0.0017,"dx":0.0017,"nx":28,"ny":28,"refTime":"2025-03-04T09:00:00:Z","depth":0,"parameterNumber":2,"parameterNumberName":"U-component_of_WINDS"},"data":[0,0,0,0,0,0,0,0,0,0,0,0,0,0,0,0,0,0,0,0,0,0,0,0,0,0,0,0,0,0,0,0,0,0,0,0,0,0,0,0,0,0,0,0,0,0,0,0,0,0,0,0,0,0,0,0,0,0,-5.8567,-5.8568,0,-5.8666,-5.8667,-5.8668,-5.8696,-5.8695,-5.8694,-5.8694,-5.8791,-5.8794,-5.8797,0,0,0,0,0,0,0,0,0,0,0,0,0,-5.8396,-5.8399,-5.8567,-5.8568,-5.8569,-5.8666,-5.8667,-5.8669,-5.8696,-5.8695,-5.8694,-5.8694,-5.879,-5.8793,-5.8797,0,0,0,0,0,0,0,0,0,0,0,0,0,-5.848,-5.84,-5.8566,-5.8594,-5.8598,-5.8666,-5.8667,-5.8669,-5.8696,-5.8695,-5.8694,-5.8693,-5.8788,-5.8793,-5.8797,-5.8843,0,0,-5.8812,-5.8814,0,0,0,0,0,0,0,0,-5.8476,-5.8487,-5.8589,-5.8593,-5.8597,-5.8668,-5.8643,-5.8727,-5.8696,-5.8658,-5.8694,-5.8693,-5.875,-5.8758,-5.8778,-5.8847,-5.8852,-5.8812,-5.8815,-5.8817,-5.8818,0,0,0,0,0,0,0,-5.847,-5.8482,-5.8606,-5.859,-5.8595,-5.8601,-5.8612,-5.8659,-5.8707,-5.8662,-5.8664,-5.8676,-5.8752,-5.8774,-5.8781,-5.8853,-5.8812,-5.8816,-5.8819,-5.8821,-5.8965,-5.8966,0,0,0,0,0,0,-5.846,-5.8477,-5.8603,-5.8609,-5.8533,-5.8604,-5.8617,-5.8646,-5.8707,-5.8716,-5.8676,-5.8676,-5.8766,-5.8775,-5.8784,-5.8841,-5.8817,-5.8821,-5.8824,-5.8964,-5.8965,-5.8966,0,0,0,0,0,0,-5.8456,-5.8471,-5.8599,-5.8544,-5.8561,-5.8608,-5.864,-5.8648,-5.867,-5.8718,-5.8727,-5.869,-5.8766,-5.8777,-5.8828,-5.8845,-5.8823,-5.8827,-5.8963,-5.8964,-5.8966,-5.8956,0,0,0,0,0,0,-5.8451,-5.8469,-5.8488,-5.8544,-5.8563,-5.8642,-5.8642,-5.8651,-5.8678,-5.868,-5.8733,-5.8741,-5.8766,-5.8821,-5.8833,-5.8851,-5.8831,-5.8961,-5.8963,-5.8965,-5.8955,-5.8957,-5.8958,0,0,0,0,0,-5.8445,-5.848,-5.8488,-5.8503,-5.8588,-5.8643,-5.8654,-5.8684,-5.868,-5.8698,-5.8729,-5.8739,-5.8842,-5.8826,-5.884,-5.8859,-5.896,-5.8963,-5.8965,-5.8954,-5.8956,-5.8958,0,0,0,0,0,0,-5.8422,-5.8487,-5.8498,-5.8552,-5.8592,-5.8648,-5.8672,-5.8685,-5.8726,-5.8725,-5.8759,-5.8771,-5.8819,-5.8844,-5.8826,-5.8907,-5.8901,-5.8906,-5.8888,-5.8891,-5.8892,-5.8884,-5.8835,0,0,0,0,0,-5.8423,-5.8464,-5.8519,-5.8562,-5.8582,-5.8623,-5.8649,-5.8668,-5.871,-5.8727,-5.8762,-5.8801,-5.8842,-5.8868,-5.8908,-5.8959,-5.8971,-5.8979,-5.8981,-5.8982,-5.8986,-5.9014,-5.9018,-5.8974,-5.8974,-5.8974,0,0,-5.8426,-5.8467,-5.8491,-5.8558,-5.8592,-5.8632,-5.8637,-5.868,-5.871,-5.8733,-5.8783,-5.881,-5.8856,-5.8907,-5.8932,-5.893,-5.9001,-5.8985,-5.8986,-5.8989,-5.9017,-5.9021,-5.9025,-5.8975,-5.8975,-5.8975,0,0,-5.8452,-5.8488,-5.8528,-5.8562,-5.8613,-5.8641,-5.865,-5.8704,-5.8724,-5.8776,-5.8794,-5.8829,-5.8899,-5.8932,-5.8957,-5.8997,-5.9007,-5.9009,-5.9018,-5.9045,-5.9049,-5.9052,-5.9066,-5.907,-5.9013,-5.9013,-5.9013,0,-5.8449,-5.8512,-5.8546,-5.8588,-5.8617,-5.8642,-5.8682,-5.8712,-5.8773,-5.8792,-5.879,-5.8879,-5.8912,-5.8971,-5.8981,-5.9001,-5.9012,-5.9002,-5.9046,-5.905,-5.9053,-5.9066,-5.9071,-5.9013,-5.9013,-5.9013,-5.9013,0,-5.8505,-5.8549,-5.8574,-5.8635,-5.8667,-5.8707,-5.8746,-5.8774,-5.8792,-5.8819,-5.8872,-5.8912,-5.8961,-5.8977,-5.8994,-5.9039,-5.9036,-5.904,-5.9034,-5.9057,-5.9069,-5.9075,-5.9012,-5.9012,-5.9012,-5.9013,0,0,-5.8517,-5.8597,-5.8606,-5.8634,-5.8693,-5.8727,-5.8768,-5.8818,-5.8841,-5.8883,-5.8918,-5.8978,-5.8982,-5.9011,-5.9032,-5.9056,-5.9084,-5.9057,-5.9058,-5.9059,-5.9135,-5.9131,-5.9137,-5.9093,-5.9094,-5.9095,-5.9131,0,-5.855,-5.8627,-5.8659,-5.872,-5.8761,-5.8786,-5.8822,-5.8862,-5.8889,-5.8926,-5.8956,-5.8998,-5.9001,-5.9019,-5.9044,-5.9075,-5.91,-5.9074,-5.9124,-5.9125,-5.911,-5.9143,-5.9139,-5.9171,-5.9137,-5.9137,-5.9138,0,-5.8597,-5.8641,-5.8707,-5.8762,-5.878,-5.8812,-5.8861,-5.8897,-5.8942,-5.8961,-5.8994,-5.9014,-5.9057,-5.9051,-5.9111,-5.9092,-5.9115,-5.9134,-5.9136,-5.914,-5.9132,-5.9147,-5.9183,-5.9187,-5.9147,-5.9146,-5.9145,0,-5.8598,-5.8674,-5.8723,-5.8746,-5.8812,-5.8834,-5.8862,-5.8907,-5.8935,-5.8978,-5.8996,-5.9042,-5.9067,-5.9102,-5.9133,-5.9126,-5.919,-5.9186,-5.9205,-5.9204,-5.9216,-5.9214,-5.9254,-5.9233,-5.9233,-5.9233,-5.9233,0,-5.863,-5.8669,-5.8725,-5.8755,-5.8799,-5.8836,-5.8879,-5.8908,-5.8948,-5.8984,-5.9008,-5.9041,-5.9081,-5.9118,-5.9143,-5.9189,-5.92,-5.9215,-5.9221,-5.9212,-5.921,-5.9226,-5.9224,-5.9234,-5.9234,-5.9234,-5.9233,0,-5.8638,-5.8677,-5.8732,-5.8791,-5.8806,-5.8836,-5.8886,-5.8915,-5.8945,-5.899,-5.9002,-5.9048,-5.9093,-5.9129,-5.9187,-5.9204,-5.9252,-5.9259,-5.9237,-5.924,-5.9256,-5.9253,-5.9306,-5.9314,-5.9289,-5.9289,-5.9289,0,-5.8655,-5.8686,-5.8748,-5.8775,-5.8803,-5.8845,-5.8875,-5.8913,-5.8942,-5.8997,-5.902,-5.9068,-5.9107,-5.9179,-5.9216,-5.9261,-5.9268,-5.9284,-5.9275,-5.9265,-5.9267,-5.9265,-5.9267,-5.9284,-5.9284,-5.9284,-5.9284,0,-5.8681,-5.8699,-5.8742,-5.8791,-5.8827,-5.8867,-5.8908,-5.8928,-5.8972,-5.9004,-5.9052,-5.9083,-5.9144,-5.9191,-5.924,-5.9268,-5.9283,-5.9287,-5.9294,-5.9284,-5.927,-5.9277,-5.9238,-5.9285,-5.9285,-5.9285,-5.9285,-5.9285,-5.8693,-5.8722,-5.8771,-5.8818,-5.8853,-5.8891,-5.8922,-5.8956,-5.8997,-5.9051,-5.907,-5.9119,-5.9164,-5.9232,-5.926,-5.9298,-5.9299,-5.9308,-5.9311,-5.9312,-5.9311,-5.9265,-5.9307,-5.9307,-5.9307,-5.9307,-5.9307,0,-5.872,-5.8753,-5.8796,-5.8853,-5.8889,-5.8904,-5.895,-5.8979,-5.9022,-5.9064,-5.9103,-5.9158,-5.9204,-5.9246,-5.9293,-5.9315,-5.9324,-5.9326,-5.9324,-5.933,-5.9308,-5.9297,-5.9319,-5.9319,-5.9319,-5.9319,-5.9319,-5.9319,-5.8738,-5.8787,-5.8811,-5.8878,-5.8911,-5.896,-5.8985,-5.902,-5.9054,-5.9114,-5.9153,-5.9181,-5.9222,-5.9273,-5.9316,-5.9327,-5.9342,-5.9343,-5.9356,-5.9333,-5.9332,-5.933,-5.932,-5.9346,-5.9347,-5.9375,-5.9375,-5.9375]},{"header":{"parameterUnit":"m.s-1","parameterCategory":1,"la1":30.2991,"la2":30.254,"lo1":-89.0895,"lo2":-89.0444,"dy":0.0017,"dx":0.0017,"nx":28,"ny":28,"refTime":"2025-03-04T09:00:00:Z","depth":0,"parameterNumber":3,"parameterNumberName":"V-component_of_WINDS"},"data":[0,0,0,0,0,0,0,0,0,0,0,0,0,0,0,0,0,0,0,0,0,0,0,0,0,0,0,0,0,0,0,0,0,0,0,0,0,0,0,0,0,0,0,0,0,0,0,0,0,0,0,0,0,0,0,0,0,0,9.1533,9.1533,0,9.1541,9.1541,9.1541,9.146,9.1458,9.1456,9.1454,9.146,9.1462,9.1465,0,0,0,0,0,0,0,0,0,0,0,0,0,9.1449,9.1451,9.1533,9.1533,9.1533,9.1541,9.1541,9.1541,9.1461,9.1458,9.1455,9.1453,9.1459,9.1462,9.1465,0,0,0,0,0,0,0,0,0,0,0,0,0,9.1474,9.1452,9.1533,9.1494,9.1491,9.1541,9.1541,9.1541,9.1461,9.1458,9.1455,9.1451,9.1459,9.1462,9.1465,9.1552,0,0,9.1475,9.1477,0,0,0,0,0,0,0,0,9.1473,9.1477,9.15,9.1497,9.1493,9.1496,9.1514,9.1545,9.1462,9.1472,9.1454,9.145,9.1475,9.1477,9.1485,9.1553,9.1553,9.1476,9.1478,9.1479,9.148,0,0,0,0,0,0,0,9.1471,9.1477,9.1536,9.15,9.1496,9.1477,9.1476,9.1519,9.1492,9.1471,9.1465,9.1468,9.1472,9.1482,9.1485,9.1553,9.1476,9.1479,9.1481,9.1482,9.1696,9.17,0,0,0,0,0,0,9.1475,9.1476,9.1536,9.1536,9.1475,9.1481,9.1481,9.1499,9.1491,9.1487,9.147,9.1464,9.1478,9.1481,9.1485,9.1589,9.1479,9.1482,9.1484,9.1692,9.1697,9.1701,0,0,0,0,0,0,9.1474,9.1481,9.1536,9.1505,9.151,9.1486,9.1507,9.1501,9.151,9.1491,9.1485,9.1486,9.1476,9.148,9.1537,9.1588,9.1484,9.1487,9.1688,9.1694,9.1699,9.1797,0,0,0,0,0,0,9.1471,9.1481,9.1514,9.1506,9.1512,9.1588,9.151,9.1503,9.1517,9.1508,9.1504,9.15,9.1473,9.1533,9.154,9.1591,9.1489,9.1683,9.1691,9.1697,9.1789,9.1805,9.1819,0,0,0,0,0,9.1469,9.154,9.1516,9.1523,9.1552,9.1591,9.1594,9.1563,9.1521,9.1554,9.1542,9.15,9.1581,9.1539,9.1547,9.1599,9.168,9.1689,9.1697,9.1782,9.1802,9.1818,0,0,0,0,0,0,9.1552,9.1538,9.1511,9.1582,9.1589,9.1577,9.1618,9.1584,9.1603,9.1594,9.1554,9.1553,9.1618,9.1614,9.1567,9.1685,9.1623,9.1634,9.1686,9.1704,9.1719,9.1719,9.1492,0,0,0,0,0,9.158,9.1612,9.1598,9.1661,9.1666,9.1642,9.1657,9.1633,9.1638,9.164,9.1632,9.1639,9.1666,9.1684,9.1708,9.1788,9.1787,9.1828,9.1843,9.1855,9.1865,9.191,9.1929,9.1728,9.1728,9.1728,0,0,9.1635,9.1631,9.1654,9.1678,9.1681,9.1717,9.1645,9.1684,9.1711,9.1646,9.1701,9.1695,9.17,9.177,9.18,9.1768,9.192,9.1866,9.1876,9.1879,9.192,9.194,9.1957,9.1734,9.1733,9.1732,0,0,9.1755,9.1754,9.1809,9.1814,9.1819,9.1803,9.1816,9.1811,9.1805,9.1859,9.1813,9.1843,9.189,9.1896,9.1906,9.2032,9.1995,9.2041,9.2119,9.2163,9.2179,9.2193,9.224,9.2258,9.205,9.205,9.2051,0,9.1823,9.1875,9.1841,9.1886,9.1899,9.1844,9.19,9.1905,9.1918,9.1928,9.1893,9.1953,9.1952,9.2024,9.2055,9.2064,9.2079,9.2041,9.218,9.2193,9.2206,9.225,9.2268,9.2056,9.2055,9.2055,9.2054,0,9.1961,9.1998,9.2041,9.2057,9.2075,9.2124,9.2099,9.2121,9.2096,9.2084,9.2141,9.2138,9.2162,9.2177,9.2152,9.2247,9.2227,9.2186,9.2123,9.2231,9.2273,9.2289,9.2064,9.2062,9.2061,9.2059,0,0,9.2132,9.2131,9.2148,9.2156,9.2159,9.2187,9.2235,9.2259,9.2281,9.2291,9.2332,9.2375,9.2338,9.2349,9.2324,9.2363,9.2466,9.2317,9.2317,9.2347,9.2574,9.2606,9.2626,9.2441,9.2444,9.2447,9.2574,0,9.2251,9.2335,9.2307,9.2392,9.2427,9.2376,9.2419,9.2426,9.2416,9.2445,9.2434,9.2466,9.2413,9.242,9.2456,9.2446,9.2512,9.2436,9.248,9.2482,9.2482,9.2647,9.2681,9.2801,9.259,9.2592,9.2594,0,9.2401,9.2421,9.251,9.251,9.2524,9.2562,9.2584,9.2612,9.2619,9.261,9.2624,9.2592,9.264,9.2577,9.2644,9.2594,9.261,9.2608,9.2612,9.2616,9.2546,9.2658,9.2838,9.2857,9.2619,9.2617,9.2615,0,9.2521,9.2569,9.2629,9.2637,9.2638,9.2667,9.2669,9.2673,9.2691,9.271,9.2721,9.2745,9.2759,9.2778,9.2754,9.271,9.2826,9.2759,9.282,9.2821,9.2848,9.2847,9.3036,9.2856,9.2855,9.2855,9.2855,0,9.2658,9.2715,9.2684,9.2721,9.2784,9.2752,9.2816,9.2811,9.2817,9.2853,9.2809,9.2844,9.2809,9.2841,9.2822,9.2882,9.2888,9.2882,9.2877,9.2888,9.2889,9.2899,9.289,9.286,9.2859,9.2858,9.2857,0,9.2803,9.2784,9.2847,9.2844,9.2845,9.2892,9.2889,9.2924,9.2912,9.2959,9.2968,9.2949,9.2985,9.2963,9.2998,9.2985,9.3065,9.3046,9.3063,9.3059,9.3122,9.3117,9.3325,9.3351,9.3153,9.3155,9.3156,0,9.2892,9.2935,9.2938,9.296,9.2965,9.3,9.3019,9.2989,9.3011,9.3024,9.3058,9.309,9.3115,9.3174,9.3164,9.3192,9.3175,9.3246,9.3179,9.3189,9.3179,9.3178,9.3183,9.326,9.3263,9.3264,9.3266,0,9.3054,9.3043,9.3072,9.3099,9.3123,9.3142,9.3158,9.3178,9.3149,9.3175,9.3212,9.3231,9.3269,9.3302,9.3326,9.3327,9.3293,9.3287,9.3303,9.3315,9.3324,9.3323,9.3102,9.3283,9.3281,9.328,9.3279,9.3278,9.3175,9.3213,9.3222,9.3256,9.3265,9.3282,9.3316,9.3309,9.334,9.3369,9.3349,9.3394,9.3402,9.3431,9.3438,9.3472,9.3443,9.3466,9.3472,9.3479,9.3489,9.3317,9.3476,9.3476,9.3475,9.3475,9.3474,0,9.3337,9.3341,9.3373,9.3398,9.3426,9.3391,9.3408,9.3433,9.3473,9.3485,9.351,9.3554,9.3587,9.358,9.361,9.3639,9.3624,9.3648,9.3647,9.3648,9.3511,9.3496,9.366,9.366,9.366,9.366,9.366,9.366,9.3425,9.3488,9.3479,9.3546,9.3549,9.3593,9.3606,9.3622,9.3631,9.3682,9.371,9.3706,9.3711,9.3741,9.377,9.3767,9.3781,9.3812,9.3803,9.3676,9.3658,9.364,9.3625,9.3814,9.3815,9.3938,9.3939,9.394]}]]